Meath Environmental Platform

Observations for Trim Patrick St

Time AQI Temp °C Hum % Pres Pa CO μg/m³ H₂S μg/m³ NO μg/m³ NO₂ μg/m³ O₃ μg/m³ SO₂ μg/m³ PM1 μg/m³ PM2.5 μg/m³ PM10 μg/m³
Monday 3 August 2026
09:39 2 22.4 62 79,042 0 0 2.28 9.23 58.04 3.42 7.14 11.56 12.72
09:38 2 22.5 62 79,113 0 0 2.03 8.7 56.36 2.86 6.29 11.56 12.72
09:37 2 22.5 62 79,154 0 0 2.55 8.02 53.83 2.76 7.14 12.27 13.49
09:36 2 22.5 63 79,243 0 0 2.69 8.53 54.2 3.03 6.29 10.78 11.85
09:35 2 22.5 63 79,249 0 0 2.73 9 53.85 3.1 6.29 11.5 12.66
09:34 2 22.5 63 79,186 0 0 2.65 8.01 54.49 4.4 6.29 10.72 11.79
09:33 2 22.5 62 79,107 0 0 2.69 10.46 49.31 4.63 5.43 10.09 11.1
09:32 2 22.6 62 78,851 0 0 2.57 9.48 52.51 2.84 5.43 10.81 11.9
09:31 2 22.6 62 78,800 0 0 2.34 7.65 53.83 3.76 6.29 11.55 12.71
09:30 2 22.7 62 78,871 0 0 2.47 8.41 52.72 3.19 6.29 10.83 11.91
09:28 2 22.7 63 79,129 0 0 1.96 8.02 53.33 3.92 5.43 9.29 10.22
09:27 2 22.8 63 79,255 0 0 1.71 7.89 49.52 3.25 5.43 10.03 11.03
09:26 2 22.8 63 79,394 0.01 0 2.12 9.36 50.1 5.03 5.43 10.01 11.01
09:25 2 22.8 62 79,445 0.04 0 2.06 9.02 51.86 4.59 6.29 11.54 12.69
09:23 2 22.9 63 79,670 0.05 0 2.29 8.4 49.03 3.29 5.43 10 11
09:22 2 22.9 63 80,071 0.05 0 2.68 8.56 47.23 3.6 4.57 10.01 11.01
09:21 2 22.9 63 80,502 0.07 0 3.13 8.04 48.6 3.72 5.43 11.5 12.65
09:20 2 22.9 63 80,978 0.08 0 3.2 11.49 41.15 4.28 6.29 12.19 13.41
09:19 2 22.9 64 81,286 0.09 0 3.23 11.37 40.47 4.02 5.43 10.7 11.77
09:18 2 22.9 63 81,695 0.11 0 3.29 14.31 36.34 4.87 7.14 12.93 14.66